QPF
0.00 -0.00 0.00 0.00 0.00 0.00 -0.00 0.00 -0.00 -0.00 0.00 -0.00 0.00 0.00 -0.00 0.00 0.00 0.00 0.00 0.00 -0.00 0.00 0.00 0.00 -0.00 0.00 -0.00 -0.00 0.00 0.00 0.00 0.00 0.00 0.00 -0.00 0.00 0.00 0.00 -0.00 0.00 0.00 0.00 0.00 0.00 -0.00 0.00 0.00 0.00 0.00 0.00 0.00 -0.00
-0.00 0.00 0.00 0.00 0.00 0.00 0.00 0.00 0.00 0.00 0.00 -0.00 0.00 0.00 0.00 0.00 0.00 -0.00 0.00 -0.00 -0.00 0.00 -0.00 0.00 0.00 0.00 0.00 0.00 0.00 0.00 0.00 0.00 0.00 0.00 0.00 0.00 0.00 0.00 0.00 0.00 0.00 -0.00 0.00 0.00 0.00 -0.00 0.00 0.00 0.00 0.00 0.00 0.00
0.00 0.00 -0.00 0.00 0.00 0.00 0.00 0.00 -0.00 0.00 0.00 0.00 0.00 0.00 0.00 0.00 0.00 0.00 -0.00 0.00 0.00 0.00 -0.00 0.00 0.00 0.00 0.00 0.00 -0.00 0.00 0.00 0.00 0.00 -0.00 0.00 0.00 0.00 0.00 0.00 0.00 0.00 0.00 0.00 0.00 0.00 0.00 -0.00 -0.00 0.00 0.00 0.00 0.00
0.00 -0.00 0.00 -0.00 0.00 0.00 -0.00 0.00 0.00 0.00 0.00 0.00 0.00 0.00 0.00 0.00 0.00 0.00 0.00 0.00 0.00 0.00 0.00 0.00 -0.00 0.00 -0.00 0.00 -0.00 0.00 0.00 0.00 0.00 -0.00 0.00 0.00 -0.00 0.00 0.00 0.00 0.00 0.00 0.00 0.00 0.00 -0.00 0.00 0.00 0.00 0.00 0.00 0.00
0.00 0.00 0.00 0.00 -0.00 -0.00 0.00 0.00 0.00 0.00 0.00 0.00 0.00 0.00 0.00 0.00 0.00 -0.00 0.00 0.00 0.00 0.00 0.00 0.00 0.00 0.00 0.00 0.00 0.00 -0.00 0.00 0.00 0.00 0.00 0.00 0.00 0.00 0.00 0.00 -0.00 -0.00 -0.00 -0.00 0.00 0.00 -0.00 0.00 -0.00 0.00 0.00 0.00 -0.00
-0.00 0.00 0.00 0.00 0.00 -0.00 0.00 0.00 -0.00 0.00 0.00 0.00 -0.00 0.00 0.00 -0.00 0.00 0.00 0.00 0.00 -0.00 0.00 0.00 0.00 0.00 0.00 -0.00 0.00 0.00 -0.00 0.00 0.00 0.00 -0.00 0.00 0.00 0.00 -0.00 0.00 -0.00 0.00 0.00 0.00 0.00 0.00 0.00 0.00 -0.00 -0.00 -0.00 0.00 -0.00
0.00 0.00 0.00 0.00 0.00 0.00 0.00 0.00 -0.00 0.00 0.00 0.00 -0.00 0.00 0.00 0.00 0.00 0.00 0.00 0.00 -0.00 0.00 -0.00 0.00 0.00 0.00 0.00 0.00 0.00 0.00 0.00 0.00 0.00 0.00 0.00 0.00 -0.00 0.00 0.00 0.00 -0.00 0.00 0.00 0.00 -0.00 -0.00 0.00 0.00 0.00 0.00 0.00 0.00
0.00 0.00 0.00 0.00 0.00 -0.00 0.00 0.00 0.00 0.00 0.00 -0.00 0.00 0.00 0.00 0.00 0.00 0.00 0.00 -0.00 -0.00 0.00 -0.00 0.00 0.00 0.00 0.00 0.00 0.00 0.00 0.00 0.00 0.00 0.00 -0.00 0.00 0.00 0.00 0.00 -0.00 0.00 0.00 0.00 0.00 0.00 0.00 0.00 0.00 0.00 -0.00 0.00 0.00
0.00 0.00 0.00 0.00 0.00 -0.00 0.00 0.00 0.00 0.00 -0.00 0.00 -0.00 -0.00 0.00 0.00 -0.00 0.00 -0.00 0.00 0.00 0.00 0.00 0.00 0.00 0.00 -0.00 -0.00 0.00 0.00 -0.00 0.00 0.00 0.00 0.00 0.00 0.00 0.00 -0.00 -0.00 0.00 0.00 0.00 0.00 0.00 0.00 0.00 0.00 0.00 0.00 0.00 0.00
0.00 0.00 0.00 0.00 0.00 0.00 0.00 0.00 0.00 0.00 0.00 -0.00 0.00 0.00 0.00 0.00 0.00 0.00 0.00 0.00 0.00 0.00 0.00 0.00 -0.00 0.00 -0.00 0.00 -0.00 0.00 0.00 0.00 0.00 0.00 0.00 0.00 0.00 0.00 -0.00 -0.00 0.00 0.00 0.00 0.00 0.00 0.00 -0.00 0.00 0.00 0.00 0.00 0.00
0.00 0.00 0.00 0.00 0.00 0.00 -0.00 0.00 -0.00 0.00 0.00 0.00 0.00 0.00 0.00 0.00 0.00 0.00 0.00 0.00 0.00 0.00 0.00 0.00 0.00 -0.00 0.00 -0.00 0.00 0.00 0.00 0.00 0.00 -0.00 0.00 0.00 0.00 -0.00 0.00 0.00 0.00 -0.00 0.00 0.00 0.00 0.00 0.00 0.00 0.00 0.00 0.00 0.00
0.00 0.00 0.00 0.00 0.00 0.00 0.00 0.00 0.00 0.00 0.00 0.00 0.00 0.00 0.00 -0.00 0.00 0.00 0.00 0.00 0.00 -0.00 0.00 0.00 0.00 0.00 0.00 0.00 0.00 0.00 0.00 0.00 -0.00 -0.00 0.00 0.00 0.00 0.00 0.00 0.00 0.00 0.00 0.00 0.00 0.00 -0.00 0.00 -0.00 0.00 0.00 0.00 0.00
0.00 0.00 0.00 0.00 0.00 0.00 0.00 0.00 0.00 0.00 0.00 0.00 0.00 0.00 0.00 0.00 0.00 -0.00 0.00 0.00 0.00 0.00 0.00 0.00 0.00 0.00 0.00 0.00 0.00 0.00 0.00 -0.00 0.00 -0.00 0.00 0.00 0.00 0.00 0.00 0.00 0.00 0.00 0.00 0.00 0.00 0.00 -0.00 -0.00 -0.00 -0.00 0.00 0.00
0.00 0.00 0.00 0.00 0.00 0.00 0.00 0.00 0.00 0.00 0.00 0.00 -0.00 0.00 0.00 -0.00 -0.00 0.00 0.00 0.00 0.00 -0.00 0.00 0.00 0.00 -0.00 0.00 0.00 -0.00 0.00 0.00 0.00 0.00 0.00 0.00 0.00 0.00 0.00 0.00 -0.00 0.00 0.00 0.00 0.00 0.00 0.00 0.00 0.00 -0.00 0.00 0.00 0.00
0.00 0.00 0.00 0.00 0.00 0.00 0.00 0.00 0.00 0.00 0.00 0.00 0.00 0.00 0.00 0.00 0.00 -0.00 -0.00 -0.00 0.00 0.00 0.00 0.00 0.00 -0.00 0.00 0.00 -0.00 0.00 0.00 0.00 0.00 0.00 0.00 0.00 0.00 0.00 0.00 -0.00 0.00 -0.00 0.00 -0.00 -0.00 0.00 -0.00 0.00 0.00 0.00 0.00 0.00
0.00 0.00 0.00 0.00 0.00 0.00 0.00 0.00 0.00 0.00 0.00 0.00 0.00 0.00 0.00 0.00 0.00 0.00 0.00 -0.00 0.00 -0.00 -0.00 0.00 0.00 0.00 0.00 0.00 0.00 0.00 0.00 0.00 0.00 -0.00 -0.00 0.00 0.00 0.00 -0.00 -0.00 0.00 -0.00 -0.00 -0.00 0.00 0.00 0.00 -0.00 0.00 0.00 0.00 -0.00
0.00 0.00 0.00 0.00 0.00 0.00 0.00 0.00 0.00 0.00 0.00 0.00 0.00 0.00 0.00 0.00 0.00 0.00 0.00 -0.00 0.00 0.00 0.00 0.00 0.00 -0.00 0.00 0.00 0.00 0.00 0.00 0.00 0.00 0.00 0.00 0.00 0.00 0.00 0.00 -0.00 0.00 0.00 0.00 0.00 -0.00 0.00 0.00 -0.00 0.00 0.00 0.00 0.00
0.00 0.00 0.00 0.00 0.00 0.00 0.00 0.00 0.00 0.00 0.00 0.00 0.00 0.00 0.00 0.00 0.00 0.00 0.00 0.00 0.00 0.00 0.00 0.00 0.00 -0.00 0.00 -0.00 0.00 0.00 0.00 0.00 0.00 0.00 -0.00 0.00 0.00 0.00 0.00 0.00 0.00 0.00 0.00 0.00 0.00 0.00 0.00 0.00 0.00 0.00 0.00 0.00
0.00 0.00 0.00 -0.00 -0.00 -0.00 -0.00 0.00 0.00 0.00 0.00 0.00 0.00 0.00 0.00 0.00 0.00 0.00 0.00 0.00 0.00 0.00 0.00 0.00 -0.00 -0.00 0.00 0.00 0.00 -0.00 -0.00 0.00 -0.00 -0.00 0.00 0.00 0.00 -0.00 -0.00 0.00 -0.00 0.00 0.00 0.00 0.00 0.00 0.00 -0.00 0.00 -0.00 0.00 0.00
0.00 0.00 0.00 0.00 0.00 0.00 0.00 0.00 0.00 0.00 0.00 0.00 0.00 0.00 0.00 0.00 0.00 0.00 0.00 0.00 -0.00 0.00 -0.00 0.00 0.00 0.00 0.00 0.00 0.00 0.00 -0.00 0.00 0.00 0.00 0.00 0.00 0.00 0.00 0.00 0.00 0.00 0.00 0.00 0.00 0.00 0.00 0.00 0.00 0.00 0.00 0.00 0.00
0.00 0.00 0.00 0.00 0.00 0.00 0.00 0.00 0.00 0.00 0.00 0.00 0.00 0.00 0.00 0.00 0.00 0.00 0.00 0.00 0.00 0.00 -0.00 0.00 -0.00 0.00 0.00 0.00 0.00 0.00 0.00 0.00 0.00 0.00 0.00 0.00 0.00 0.00 0.00 0.00 0.00 0.00 0.00 0.00 0.00 0.00 0.00 0.00 -0.00 0.00 -0.00 0.00
0.00 0.00 0.00 0.00 0.00 0.00 0.00 0.00 0.00 0.00 0.00 0.00 0.00 0.00 0.00 0.00 0.00 0.00 0.00 0.00 0.00 0.00 0.00 0.00 0.00 -0.00 -0.00 0.00 -0.00 -0.00 0.00 -0.00 0.00 0.00 0.00 0.00 0.00 0.00 0.00 0.00 0.00 0.00 0.00 0.00 0.00 0.00 0.00 0.00 -0.00 -0.00 0.00 0.00
0.00 0.00 0.00 0.00 0.00 0.00 0.00 0.00 0.00 0.00 0.00 0.00 0.00 0.00 0.00 0.00 0.00 0.00 0.00 0.00 0.00 0.00 0.00 0.00 0.00 0.00 -0.00 0.00 0.00 0.00 0.00 0.00 0.00 -0.00 0.00 0.00 -0.00 0.00 0.00 0.00 0.00 0.00 0.00 0.00 -0.00 0.00 0.00 0.00 0.00 -0.00 0.00 0.00
-0.00 0.00 0.00 -0.00 0.00 0.00 0.00 -0.00 0.00 0.00 -0.00 0.00 0.00 0.00 0.00 0.00 0.00 0.00 0.00 0.00 0.00 0.00 0.00 0.00 0.00 0.00 0.00 0.00 0.00 0.00 0.00 0.00 0.00 0.00 0.00 0.00 0.00 0.00 -0.00 0.00 0.00 0.00 -0.00 0.00 0.00 0.00 0.00 0.00 0.00 -0.00 -0.00 -0.00
0.00 0.00 0.00 0.00 0.00 0.00 0.00 0.00 0.00 0.00 0.00 0.00 0.00 0.00 0.00 0.00 0.00 0.00 0.00 0.00 0.00 0.00 0.00 0.00 0.00 0.00 0.00 0.00 0.00 0.00 0.00 -0.00 0.00 0.00 -0.00 0.00 0.00 0.00 -0.00 0.00 0.00 0.00 0.00 0.00 -0.00 0.00 0.00 0.00 0.00 0.00 -0.00 -0.00
-0.00 -0.00 0.00 0.00 0.00 0.00 -0.00 0.00 0.00 0.00 0.00 0.00 0.00 0.00 0.00 0.00 0.00 -0.00 0.00 0.00 0.00 0.00 0.00 0.00 0.00 0.00 -0.00 -0.00 0.00 0.00 -0.00 -0.00 0.00 0.00 0.00 -0.00 0.00 0.00 0.00 0.00 0.00 0.00 -0.00 -0.00 0.00 -0.00 -0.00 -0.00 0.00 0.00 0.00 -0.00
0.00 0.00 0.00 0.00 0.00 0.00 0.00 0.00 -0.00 0.00 0.00 0.00 0.00 0.00 0.00 0.00 -0.00 0.00 0.00 0.00 0.00 0.00 0.00 -0.00 0.00 0.00 0.00 0.00 0.00 0.00 0.00 0.00 0.00 0.00 0.00 -0.00 0.00 0.00 -0.00 0.00 0.00 0.00 -0.00 0.00 0.00 0.00 0.00 0.00 -0.00 0.00 0.00 0.00
0.00 0.00 0.00 0.00 0.00 0.00 0.00 0.00 0.00 0.00 0.00 0.00 0.00 0.00 -0.00 0.00 0.00 0.00 0.00 0.00 0.00 0.00 0.00 0.00 0.00 0.00 0.00 0.00 0.00 0.00 0.00 0.00 0.00 -0.00 0.00 0.00 -0.00 0.00 -0.00 -0.00 0.00 -0.00 0.00 -0.00 -0.00 -0.00 0.00 -0.00 -0.00 0.00 0.00 0.00
0.00 0.00 0.00 0.00 0.00 -0.00 0.00 0.00 0.00 0.00 0.00 0.00 0.00 -0.00 0.00 0.00 0.00 0.00 -0.00 0.00 0.00 0.00 0.00 0.00 0.00 -0.00 0.00 0.00 0.00 0.00 -0.00 -0.00 0.00 0.00 0.00 0.00 0.00 0.00 0.00 0.00 0.00 0.00 0.00 0.00 0.00 0.00 0.00 -0.00 -0.00 -0.00 0.00 0.00
0.00 0.00 0.00 0.00 0.00 0.00 0.00 -0.00 0.00 0.00 0.00 0.00 0.00 0.00 0.00 0.00 0.00 -0.00 0.00 0.00 0.00 0.00 0.00 0.00 0.00 0.00 0.00 0.00 0.00 -0.00 0.00 0.00 0.00 0.00 0.00 0.00 0.00 0.00 -0.00 0.00 0.00 0.00 -0.00 0.00 -0.00 0.00 -0.00 0.00 0.00 -0.00 -0.00 -0.00
0.00 0.00 0.00 -0.00 -0.00 0.00 0.00 0.00 0.00 -0.00 0.00 0.00 0.00 0.00 -0.00 0.00 0.00 0.00 -0.00 0.00 0.00 0.00 0.00 0.00 -0.00 0.00 0.00 0.00 -0.00 -0.00 -0.00 0.00 0.00 -0.00 0.00 -0.00 0.00 0.00 0.00 0.00 0.00 0.00 -0.00 0.00 -0.00 0.00 0.00 0.00 0.00 0.00 0.00 0.00
MSLP
1025.99 1026.11 1026.23 1026.27 1026.35 1026.43 1026.51 1026.55 1026.59 1026.63 1026.67 1026.71 1026.79 1026.87 1026.95 1027.07 1027.19 1027.19 1027.19 1027.19 1027.15 1027.19 1027.23 1027.27 1027.19 1027.11 1026.99 1026.95 1026.91 1026.95 1026.95 1026.95 1026.91 1026.91 1026.83 1026.75 1026.63 1026.55 1026.55 1026.47 1026.63 1026.79 1026.95 1027.03 1027.07 1027.15 1027.23 1027.27 1027.47 1027.59 1027.75 1027.83
1025.99 1026.15 1026.23 1026.35 1026.39 1026.47 1026.55 1026.59 1026.63 1026.71 1026.71 1026.79 1026.87 1026.95 1027.07 1027.15 1027.27 1027.27 1027.27 1027.27 1027.27 1027.27 1027.35 1027.39 1027.35 1027.23 1027.11 1027.07 1027.03 1027.07 1027.07 1027.07 1027.07 1027.03 1026.95 1026.95 1026.95 1026.91 1026.91 1026.87 1027.15 1027.19 1027.15 1027.15 1027.19 1027.27 1027.31 1027.43 1027.63 1027.79 1027.95 1028.03
1026.07 1026.15 1026.27 1026.35 1026.43 1026.51 1026.55 1026.63 1026.67 1026.67 1026.71 1026.79 1026.91 1027.03 1027.11 1027.19 1027.27 1027.31 1027.39 1027.39 1027.43 1027.43 1027.47 1027.55 1027.55 1027.43 1027.27 1027.19 1027.19 1027.23 1027.23 1027.23 1027.19 1027.15 1027.11 1027.11 1027.15 1027.15 1027.15 1027.23 1027.47 1027.43 1027.35 1027.31 1027.31 1027.35 1027.43 1027.59 1027.79 1027.99 1028.07 1028.11
1026.19 1026.23 1026.27 1026.35 1026.43 1026.51 1026.55 1026.63 1026.67 1026.71 1026.75 1026.83 1026.91 1026.99 1027.11 1027.19 1027.35 1027.43 1027.47 1027.47 1027.59 1027.59 1027.63 1027.71 1027.71 1027.59 1027.43 1027.35 1027.31 1027.39 1027.43 1027.43 1027.35 1027.31 1027.27 1027.31 1027.35 1027.35 1027.43 1027.51 1027.67 1027.67 1027.59 1027.47 1027.47 1027.47 1027.55 1027.71 1027.91 1028.03 1028.11 1028.23
1026.27 1026.35 1026.39 1026.43 1026.47 1026.51 1026.55 1026.59 1026.63 1026.67 1026.71 1026.79 1026.91 1027.03 1027.11 1027.23 1027.35 1027.51 1027.55 1027.59 1027.67 1027.67 1027.75 1027.71 1027.71 1027.67 1027.59 1027.47 1027.47 1027.51 1027.59 1027.59 1027.51 1027.43 1027.43 1027.47 1027.47 1027.55 1027.63 1027.75 1027.87 1027.87 1027.75 1027.67 1027.59 1027.59 1027.67 1027.79 1027.91 1028.03 1028.15 1028.15
1026.43 1026.47 1026.47 1026.59 1026.63 1026.71 1026.71 1026.71 1026.75 1026.79 1026.83 1026.91 1026.99 1027.07 1027.15 1027.31 1027.35 1027.43 1027.55 1027.59 1027.63 1027.67 1027.67 1027.67 1027.63 1027.63 1027.59 1027.51 1027.51 1027.59 1027.63 1027.71 1027.67 1027.59 1027.59 1027.59 1027.59 1027.67 1027.79 1027.87 1027.95 1027.91 1027.91 1027.83 1027.75 1027.71 1027.75 1027.83 1027.91 1027.99 1028.07 1028.07
1026.59 1026.67 1026.75 1026.83 1026.91 1026.95 1026.91 1026.95 1026.95 1026.99 1027.03 1027.07 1027.15 1027.19 1027.27 1027.31 1027.39 1027.47 1027.51 1027.59 1027.59 1027.59 1027.55 1027.55 1027.51 1027.55 1027.55 1027.55 1027.59 1027.67 1027.71 1027.79 1027.79 1027.71 1027.71 1027.71 1027.75 1027.83 1027.91 1027.95 1027.95 1027.91 1027.91 1027.87 1027.83 1027.83 1027.83 1027.87 1027.87 1027.95 1027.95 1027.91
1026.71 1026.83 1026.91 1026.95 1026.99 1026.99 1027.03 1027.03 1027.07 1027.11 1027.19 1027.23 1027.27 1027.35 1027.35 1027.39 1027.43 1027.47 1027.51 1027.55 1027.55 1027.55 1027.51 1027.55 1027.55 1027.55 1027.59 1027.63 1027.67 1027.75 1027.79 1027.83 1027.87 1027.83 1027.87 1027.87 1027.83 1027.95 1027.95 1027.91 1027.91 1027.83 1027.83 1027.75 1027.79 1027.79 1027.79 1027.83 1027.87 1027.83 1027.79 1027.75
1026.71 1026.79 1026.83 1026.91 1026.95 1026.95 1026.99 1027.03 1027.07 1027.11 1027.19 1027.23 1027.27 1027.35 1027.39 1027.43 1027.47 1027.51 1027.51 1027.55 1027.51 1027.55 1027.59 1027.55 1027.51 1027.55 1027.59 1027.63 1027.67 1027.75 1027.79 1027.83 1027.87 1027.87 1027.91 1027.87 1027.87 1027.91 1027.91 1027.91 1027.87 1027.83 1027.67 1027.63 1027.67 1027.67 1027.71 1027.75 1027.79 1027.75 1027.71 1027.63
1026.59 1026.67 1026.67 1026.71 1026.83 1026.91 1026.99 1027.07 1027.07 1027.11 1027.11 1027.15 1027.23 1027.31 1027.35 1027.35 1027.39 1027.43 1027.47 1027.47 1027.47 1027.51 1027.59 1027.51 1027.47 1027.51 1027.59 1027.63 1027.59 1027.71 1027.71 1027.71 1027.79 1027.79 1027.79 1027.83 1027.79 1027.79 1027.87 1027.87 1027.83 1027.83 1027.71 1027.59 1027.51 1027.47 1027.55 1027.63 1027.67 1027.63 1027.59 1027.55
1026.51 1026.55 1026.67 1026.79 1026.87 1026.91 1026.99 1027.07 1027.07 1027.07 1027.11 1027.11 1027.19 1027.23 1027.31 1027.31 1027.31 1027.35 1027.39 1027.39 1027.43 1027.47 1027.55 1027.47 1027.47 1027.47 1027.51 1027.55 1027.51 1027.59 1027.67 1027.67 1027.67 1027.71 1027.71 1027.71 1027.71 1027.75 1027.79 1027.75 1027.79 1027.75 1027.67 1027.59 1027.51 1027.35 1027.35 1027.43 1027.47 1027.47 1027.47 1027.43
1026.43 1026.59 1026.71 1026.83 1026.91 1026.99 1027.03 1027.03 1027.07 1027.03 1027.07 1027.11 1027.11 1027.19 1027.27 1027.31 1027.35 1027.39 1027.39 1027.39 1027.39 1027.47 1027.51 1027.39 1027.43 1027.47 1027.43 1027.47 1027.43 1027.51 1027.59 1027.63 1027.55 1027.55 1027.59 1027.63 1027.63 1027.59 1027.59 1027.63 1027.63 1027.59 1027.51 1027.43 1027.39 1027.31 1027.19 1027.19 1027.19 1027.23 1027.23 1027.23
1026.59 1026.71 1026.83 1026.91 1026.99 1027.03 1027.03 1027.03 1027.03 1027.07 1027.07 1027.03 1027.07 1027.15 1027.27 1027.31 1027.31 1027.39 1027.43 1027.35 1027.31 1027.43 1027.31 1027.31 1027.35 1027.35 1027.31 1027.35 1027.31 1027.39 1027.39 1027.47 1027.43 1027.39 1027.43 1027.47 1027.43 1027.47 1027.43 1027.39 1027.39 1027.35 1027.31 1027.27 1027.19 1027.19 1027.11 1027.03 1026.99 1026.95 1026.95 1026.95
1026.63 1026.87 1026.99 1027.11 1027.11 1027.15 1027.07 1027.07 1027.11 1027.07 1027.03 1027.11 1027.11 1027.15 1027.23 1027.31 1027.31 1027.31 1027.27 1027.23 1027.19 1027.31 1027.11 1027.19 1027.19 1027.19 1027.15 1027.19 1027.11 1027.27 1027.23 1027.19 1027.31 1027.27 1027.27 1027.27 1027.27 1027.27 1027.27 1027.23 1027.15 1027.19 1027.15 1027.11 1027.07 1027.03 1026.95 1026.87 1026.83 1026.75 1026.67 1026.67
1027.03 1027.19 1027.15 1027.19 1027.23 1027.19 1027.15 1027.19 1027.15 1027.15 1027.15 1027.15 1027.19 1027.15 1027.23 1027.27 1027.27 1027.19 1027.23 1027.19 1027.15 1027.23 1027.19 1027.11 1027.11 1027.03 1027.07 1027.07 1026.95 1027.07 1027.07 1027.07 1027.15 1027.19 1027.19 1027.15 1027.11 1027.07 1027.11 1027.07 1027.03 1027.11 1026.99 1026.91 1026.83 1026.79 1026.79 1026.71 1026.71 1026.63 1026.51 1026.43
1027.07 1027.15 1027.23 1027.31 1027.23 1027.23 1027.27 1027.27 1027.23 1027.19 1027.23 1027.19 1027.19 1027.27 1027.27 1027.23 1027.23 1027.23 1027.15 1027.15 1027.11 1027.15 1027.11 1027.03 1027.03 1027.03 1027.07 1026.87 1026.83 1026.91 1026.95 1026.95 1026.99 1027.03 1027.03 1027.03 1027.07 1027.07 1027.03 1026.95 1026.87 1026.87 1026.83 1026.67 1026.55 1026.55 1026.51 1026.51 1026.51 1026.43 1026.35 1026.23
1027.27 1027.27 1027.31 1027.27 1027.31 1027.39 1027.43 1027.39 1027.35 1027.27 1027.27 1027.31 1027.27 1027.27 1027.23 1027.23 1027.19 1027.19 1027.11 1027.07 1027.07 1027.03 1027.03 1026.99 1027.03 1026.95 1026.87 1026.75 1026.71 1026.75 1026.87 1026.91 1026.87 1026.91 1026.87 1026.83 1026.87 1026.83 1026.79 1026.75 1026.59 1026.59 1026.55 1026.47 1026.35 1026.31 1026.27 1026.27 1026.23 1026.19 1026.11 1025.99
1027.23 1027.39 1027.43 1027.55 1027.63 1027.67 1027.63 1027.63 1027.59 1027.51 1027.51 1027.51 1027.39 1027.39 1027.35 1027.27 1027.23 1027.11 1027.07 1027.03 1026.99 1027.07 1027.03 1026.99 1026.95 1026.83 1026.63 1026.51 1026.63 1026.67 1026.71 1026.75 1026.67 1026.71 1026.71 1026.59 1026.63 1026.55 1026.47 1026.43 1026.39 1026.39 1026.23 1026.03 1026.03 1026.07 1026.03 1026.03 1025.91 1025.87 1025.83 1025.71
1027.75 1027.83 1027.91 1027.91 1027.91 1027.91 1027.95 1027.91 1027.87 1027.83 1027.75 1027.67 1027.67 1027.59 1027.47 1027.51 1027.43 1027.31 1027.23 1027.19 1027.11 1026.99 1027.03 1026.95 1026.83 1026.75 1026.47 1026.39 1026.51 1026.47 1026.47 1026.55 1026.43 1026.55 1026.51 1026.43 1026.43 1026.35 1026.35 1026.31 1026.23 1026.19 1026.07 1025.95 1025.91 1025.83 1025.83 1025.71 1025.63 1025.63 1025.51 1025.39
1028.11 1028.11 1028.19 1028.23 1028.19 1028.15 1028.19 1028.15 1028.15 1028.11 1028.03 1027.95 1027.83 1027.75 1027.67 1027.63 1027.59 1027.47 1027.43 1027.47 1027.51 1027.39 1027.19 1027.15 1026.95 1026.63 1026.47 1026.55 1026.51 1026.35 1026.31 1026.35 1026.23 1026.19 1026.27 1026.23 1026.35 1026.23 1026.03 1025.99 1025.87 1025.79 1025.79 1025.75 1025.71 1025.63 1025.59 1025.47 1025.43 1025.31 1025.15 1025.07
1028.27 1028.23 1028.23 1028.31 1028.31 1028.27 1028.19 1028.19 1028.15 1028.11 1028.15 1028.07 1028.03 1027.99 1027.95 1027.83 1027.75 1027.59 1027.55 1027.51 1027.51 1027.47 1027.23 1027.15 1027.07 1026.79 1026.71 1026.79 1026.75 1026.51 1026.35 1026.23 1026.03 1026.07 1026.11 1025.95 1025.99 1026.15 1025.95 1025.87 1025.79 1025.59 1025.43 1025.47 1025.47 1025.39 1025.35 1025.19 1025.19 1025.03 1024.87 1024.75
1028.67 1028.63 1028.59 1028.59 1028.63 1028.55 1028.47 1028.43 1028.39 1028.31 1028.23 1028.11 1028.15 1028.11 1028.03 1027.95 1027.83 1027.67 1027.59 1027.55 1027.55 1027.47 1027.31 1027.15 1027.07 1026.87 1026.75 1026.79 1026.71 1026.59 1026.43 1026.19 1026.07 1026.07 1026.07 1025.87 1025.71 1025.87 1025.95 1025.67 1025.51 1025.31 1025.15 1025.31 1025.31 1025.15 1024.99 1024.87 1024.87 1024.71 1024.55 1024.43
1028.87 1028.83 1028.79 1028.79 1028.83 1028.79 1028.71 1028.63 1028.63 1028.63 1028.47 1028.39 1028.27 1028.15 1028.11 1027.95 1027.83 1027.71 1027.63 1027.55 1027.47 1027.35 1027.15 1027.03 1026.91 1026.87 1026.75 1026.75 1026.63 1026.55 1026.35 1026.15 1026.07 1026.07 1026.07 1026.03 1025.63 1025.67 1025.71 1025.59 1025.35 1025.27 1025.27 1025.31 1025.23 1025.03 1024.71 1024.59 1024.51 1024.35 1024.23 1024.11
1029.27 1029.23 1029.31 1029.35 1029.07 1028.87 1028.87 1028.95 1028.87 1028.75 1028.75 1028.63 1028.47 1028.31 1028.19 1027.99 1027.83 1027.71 1027.59 1027.39 1027.31 1027.23 1027.15 1027.03 1026.91 1026.87 1026.71 1026.63 1026.59 1026.47 1026.27 1025.99 1025.87 1025.91 1025.95 1025.91 1025.87 1025.63 1025.51 1025.47 1025.35 1025.27 1025.35 1025.15 1025.07 1024.75 1024.35 1024.27 1024.19 1024.07 1023.87 1023.75
1029.83 1029.87 1029.79 1029.67 1029.67 1029.67 1029.51 1029.35 1029.07 1028.99 1028.83 1028.75 1028.63 1028.51 1028.31 1028.11 1027.91 1027.71 1027.59 1027.43 1027.35 1027.31 1027.23 1027.11 1026.99 1026.87 1026.71 1026.59 1026.51 1026.39 1026.19 1026.03 1025.95 1025.91 1025.91 1025.79 1025.67 1025.55 1025.35 1025.07 1025.03 1025.15 1025.31 1025.19 1024.39 1023.95 1023.95 1023.79 1023.71 1023.55 1023.47 1023.35
1030.31 1030.31 1030.35 1030.27 1029.99 1029.87 1029.67 1029.35 1029.23 1029.15 1028.99 1028.99 1028.91 1028.67 1028.43 1028.15 1027.91 1027.83 1027.79 1027.71 1027.63 1027.51 1027.39 1027.27 1027.07 1026.91 1026.75 1026.59 1026.39 1026.27 1026.11 1025.99 1025.87 1025.79 1025.75 1025.75 1025.55 1025.35 1025.35 1024.95 1024.87 1024.95 1025.19 1024.51 1024.11 1023.51 1023.15 1023.07 1022.83 1022.87 1023.03 1022.95
1030.47 1030.39 1030.31 1030.31 1030.15 1029.95 1029.75 1029.59 1029.51 1029.43 1029.27 1029.15 1028.91 1028.63 1028.43 1028.23 1028.19 1028.15 1028.11 1027.99 1027.87 1027.71 1027.55 1027.43 1027.27 1027.03 1026.83 1026.63 1026.43 1026.19 1025.99 1025.83 1025.75 1025.67 1025.63 1025.63 1025.55 1025.07 1024.95 1025.03 1024.75 1024.91 1024.87 1024.15 1024.07 1024.27 1024.15 1022.67 1022.43 1021.95 1022.51 1022.63
1030.79 1030.63 1030.51 1030.43 1030.23 1030.03 1029.87 1029.67 1029.55 1029.39 1029.23 1029.03 1028.75 1028.59 1028.55 1028.55 1028.59 1028.55 1028.39 1028.19 1027.99 1027.79 1027.59 1027.47 1027.31 1027.07 1026.79 1026.63 1026.43 1026.31 1026.07 1025.83 1025.71 1025.55 1025.43 1025.39 1025.39 1025.43 1025.03 1024.55 1024.27 1024.47 1024.59 1024.47 1024.27 1023.67 1023.31 1023.27 1023.67 1022.35 1021.55 1022.19
1030.91 1030.63 1030.47 1030.23 1030.03 1029.83 1029.71 1029.55 1029.43 1029.31 1029.23 1029.11 1029.07 1028.95 1028.83 1028.79 1028.75 1028.67 1028.51 1028.31 1028.11 1027.87 1027.67 1027.47 1027.27 1027.07 1026.83 1026.63 1026.39 1026.19 1025.99 1025.83 1025.71 1025.59 1025.43 1025.31 1025.23 1025.15 1024.99 1024.43 1023.99 1024.03 1024.47 1024.39 1024.07 1023.43 1023.39 1023.31 1023.31 1022.87 1021.99 1022.19
1031.07 1030.95 1030.79 1030.55 1030.23 1030.03 1029.95 1029.95 1029.67 1029.71 1029.63 1029.39 1029.27 1029.19 1029.07 1028.99 1028.87 1028.75 1028.63 1028.47 1028.31 1028.11 1027.87 1027.63 1027.39 1027.15 1026.91 1026.63 1026.35 1026.15 1025.99 1025.75 1025.59 1025.39 1025.27 1025.11 1024.99 1024.87 1024.75 1024.63 1024.19 1023.79 1023.87 1024.11 1023.99 1023.75 1023.07 1022.59 1021.95 1021.59 1021.83 1022.55
1031.31 1031.19 1031.07 1030.99 1030.91 1030.79 1030.67 1030.59 1030.43 1030.31 1030.11 1029.87 1029.67 1029.47 1029.35 1029.15 1029.03 1028.91 1028.75 1028.59 1028.43 1028.23 1027.99 1027.75 1027.51 1027.27 1027.03 1026.75 1026.47 1026.19 1025.95 1025.67 1025.47 1025.23 1025.11 1024.91 1024.79 1024.63 1024.47 1024.47 1024.27 1023.99 1023.51 1023.55 1023.83 1023.79 1023.39 1023.07 1022.59 1022.51 1022.71 1022.55
Thickness
5571 5569 5568 5566 5565 5564 5563 5562 5562 5560 5560 5559 5557 5556 5555 5553 5552 5551 5551 5550 5550 5549 5549 5548 5548 5548 5548 5548 5548 5547 5547 5546 5547 5547 5547 5547 5548 5547 5548 5548 5547 5547 5547 5546 5546 5546 5545 5545 5544 5543 5544 5545
5565 5563 5562 5561 5559 5558 5557 5556 5556 5554 5553 5552 5550 5549 5548 5547 5546 5545 5545 5544 5543 5542 5542 5541 5541 5541 5541 5541 5540 5540 5539 5539 5539 5539 5539 5538 5539 5538 5539 5538 5537 5537 5537 5537 5538 5537 5537 5537 5535 5535 5535 5536
5559 5558 5556 5554 5553 5552 5551 5550 5549 5548 5547 5545 5544 5542 5541 5541 5540 5539 5538 5537 5537 5536 5535 5534 5534 5533 5533 5533 5533 5532 5532 5531 5531 5531 5530 5530 5530 5529 5529 5528 5527 5527 5527 5528 5528 5528 5528 5528 5527 5527 5527 5527
5553 5552 5550 5549 5548 5547 5546 5544 5543 5542 5540 5539 5538 5537 5536 5535 5534 5533 5532 5531 5531 5529 5528 5527 5526 5526 5525 5525 5525 5524 5523 5523 5523 5523 5523 5522 5521 5520 5520 5519 5519 5518 5518 5518 5518 5518 5519 5519 5519 5519 5519 5520
5548 5546 5545 5543 5542 5540 5540 5538 5537 5535 5534 5533 5532 5531 5530 5529 5528 5527 5526 5525 5524 5522 5522 5521 5519 5519 5518 5518 5517 5516 5515 5514 5514 5514 5514 5513 5512 5512 5510 5510 5510 5510 5510 5509 5509 5509 5510 5510 5511 5511 5512 5512
5542 5540 5538 5537 5536 5535 5533 5532 5531 5529 5528 5527 5525 5525 5523 5522 5521 5520 5519 5518 5517 5516 5515 5515 5513 5512 5511 5510 5509 5508 5507 5506 5506 5506 5505 5504 5504 5503 5502 5502 5502 5501 5502 5501 5501 5501 5501 5502 5502 5503 5504 5505
5535 5533 5532 5530 5529 5528 5527 5525 5524 5523 5521 5520 5519 5518 5516 5515 5514 5513 5512 5511 5510 5509 5509 5508 5507 5506 5504 5503 5503 5501 5500 5499 5498 5497 5497 5496 5495 5495 5494 5494 5494 5494 5494 5494 5494 5494 5494 5494 5495 5496 5497 5498
5529 5526 5525 5523 5522 5521 5520 5519 5517 5516 5514 5513 5512 5510 5509 5508 5507 5505 5505 5504 5503 5503 5502 5501 5501 5499 5498 5497 5496 5495 5494 5492 5491 5490 5489 5488 5488 5488 5488 5488 5487 5487 5487 5487 5487 5487 5488 5488 5488 5489 5490 5492
5523 5520 5519 5517 5516 5515 5513 5512 5510 5509 5508 5506 5505 5503 5502 5501 5499 5498 5497 5496 5496 5496 5495 5494 5494 5492 5491 5490 5489 5488 5487 5486 5485 5484 5483 5482 5481 5481 5481 5480 5480 5481 5481 5482 5482 5483 5482 5482 5483 5483 5484 5486
5516 5514 5513 5512 5510 5508 5506 5505 5503 5502 5501 5499 5498 5497 5495 5494 5492 5492 5491 5490 5489 5488 5487 5486 5486 5485 5484 5483 5482 5482 5481 5480 5478 5477 5476 5476 5474 5474 5474 5474 5474 5474 5476 5477 5477 5478 5478 5478 5478 5478 5479 5480
5511 5509 5507 5505 5502 5500 5498 5497 5496 5495 5494 5493 5492 5490 5489 5487 5486 5485 5484 5484 5482 5481 5480 5479 5479 5478 5477 5477 5476 5475 5474 5474 5472 5471 5470 5469 5469 5468 5469 5468 5469 5469 5470 5471 5472 5473 5474 5474 5474 5474 5474 5475
5504 5502 5500 5497 5495 5493 5491 5490 5489 5488 5487 5486 5485 5483 5482 5481 5479 5478 5477 5477 5476 5475 5473 5473 5472 5471 5471 5470 5470 5469 5468 5467 5466 5465 5464 5463 5463 5463 5463 5463 5463 5464 5465 5466 5467 5469 5469 5469 5470 5470 5471 5471
5496 5494 5491 5489 5487 5485 5484 5483 5481 5481 5480 5479 5478 5477 5475 5474 5473 5471 5470 5470 5469 5468 5467 5466 5465 5464 5464 5464 5463 5463 5462 5461 5461 5459 5459 5458 5458 5458 5458 5458 5458 5459 5460 5461 5463 5464 5465 5465 5466 5467 5468 5468
5487 5484 5482 5480 5479 5478 5476 5475 5474 5473 5472 5471 5471 5469 5469 5467 5466 5465 5464 5463 5462 5461 5460 5460 5459 5458 5458 5458 5458 5457 5456 5455 5454 5454 5453 5453 5452 5453 5453 5454 5454 5454 5455 5456 5458 5459 5460 5461 5461 5462 5464 5464
5478 5476 5474 5472 5471 5470 5468 5467 5466 5465 5465 5464 5463 5462 5461 5460 5459 5458 5457 5456 5455 5454 5454 5453 5452 5452 5451 5451 5451 5450 5450 5449 5448 5448 5447 5447 5447 5448 5448 5449 5449 5450 5451 5452 5453 5454 5455 5456 5457 5458 5459 5460
5469 5468 5465 5464 5463 5461 5460 5459 5458 5457 5456 5455 5455 5454 5453 5453 5451 5450 5449 5449 5448 5447 5447 5446 5446 5445 5444 5445 5445 5444 5444 5443 5443 5442 5441 5442 5442 5442 5443 5443 5444 5445 5446 5447 5448 5449 5451 5452 5452 5454 5455 5456
5462 5460 5457 5456 5454 5453 5452 5450 5450 5448 5448 5447 5447 5446 5445 5445 5443 5443 5443 5442 5442 5441 5440 5439 5438 5438 5438 5438 5438 5438 5438 5437 5437 5436 5436 5436 5436 5437 5438 5439 5439 5440 5441 5443 5444 5445 5446 5447 5448 5449 5450 5452
5453 5451 5449 5447 5445 5444 5443 5441 5441 5439 5439 5438 5437 5437 5436 5436 5436 5435 5436 5435 5434 5434 5433 5432 5432 5431 5432 5433 5432 5432 5431 5431 5431 5430 5430 5430 5430 5431 5432 5433 5434 5435 5437 5438 5439 5440 5442 5442 5443 5445 5446 5448
5443 5442 5439 5438 5437 5435 5434 5432 5431 5430 5430 5429 5428 5428 5427 5427 5427 5427 5427 5427 5426 5425 5425 5425 5425 5425 5426 5427 5426 5426 5425 5425 5425 5425 5424 5424 5424 5425 5426 5427 5428 5429 5431 5433 5434 5435 5437 5438 5438 5440 5442 5444
5434 5433 5430 5429 5428 5426 5425 5423 5423 5421 5420 5420 5419 5419 5418 5419 5418 5418 5418 5418 5417 5417 5417 5416 5417 5417 5418 5418 5418 5419 5419 5419 5419 5419 5419 5418 5418 5419 5420 5421 5422 5424 5426 5427 5429 5429 5430 5432 5433 5435 5437 5439
5425 5424 5422 5420 5419 5418 5417 5415 5414 5413 5412 5411 5410 5410 5409 5410 5409 5410 5410 5409 5409 5408 5409 5409 5409 5410 5409 5409 5409 5410 5411 5412 5412 5412 5412 5412 5412 5412 5413 5415 5416 5418 5420 5421 5423 5424 5425 5426 5428 5430 5431 5434
5416 5414 5412 5411 5409 5408 5407 5406 5405 5404 5404 5403 5402 5402 5401 5401 5401 5401 5401 5401 5401 5401 5401 5401 5401 5401 5401 5401 5401 5402 5402 5403 5404 5404 5404 5405 5406 5405 5406 5408 5409 5411 5413 5415 5416 5417 5419 5420 5422 5425 5426 5428
5407 5405 5403 5402 5400 5399 5398 5397 5396 5395 5395 5394 5394 5394 5393 5393 5393 5393 5393 5393 5393 5393 5393 5393 5394 5394 5393 5393 5393 5394 5395 5395 5395 5395 5395 5396 5398 5398 5398 5400 5401 5404 5405 5406 5409 5411 5413 5415 5416 5418 5420 5422
5397 5396 5394 5392 5391 5390 5389 5388 5387 5386 5385 5385 5385 5384 5384 5385 5385 5385 5385 5385 5385 5385 5385 5385 5385 5385 5385 5384 5384 5385 5386 5387 5387 5387 5387 5387 5389 5390 5391 5392 5393 5395 5396 5398 5401 5404 5407 5409 5411 5412 5414 5416
5386 5385 5383 5381 5381 5380 5379 5379 5378 5377 5377 5376 5375 5375 5375 5375 5375 5376 5376 5375 5375 5375 5375 5376 5376 5376 5376 5376 5376 5377 5378 5378 5379 5378 5378 5379 5380 5381 5383 5386 5386 5385 5386 5389 5395 5400 5403 5404 5405 5407 5408 5410
5375 5374 5373 5372 5372 5371 5370 5370 5370 5369 5368 5367 5366 5366 5367 5367 5367 5366 5365 5365 5365 5365 5365 5366 5367 5367 5367 5367 5368 5369 5369 5370 5370 5370 5369 5369 5371 5373 5374 5378 5379 5377 5377 5382 5387 5390 5394 5400 5403 5402 5402 5403
5367 5366 5364 5364 5363 5363 5363 5362 5361 5360 5359 5359 5359 5359 5359 5358 5357 5356 5354 5354 5354 5355 5356 5356 5357 5358 5358 5358 5359 5360 5361 5361 5361 5361 5361 5360 5362 5364 5366 5368 5370 5369 5369 5374 5376 5376 5382 5390 5394 5398 5399 5396
5358 5357 5356 5355 5355 5355 5355 5354 5354 5353 5352 5352 5351 5351 5349 5347 5346 5345 5345 5344 5345 5345 5346 5346 5347 5348 5349 5350 5349 5350 5352 5352 5352 5352 5352 5352 5352 5353 5356 5360 5362 5362 5360 5362 5364 5367 5373 5375 5375 5386 5393 5390
5349 5349 5349 5349 5348 5349 5347 5347 5346 5346 5344 5343 5342 5340 5339 5337 5336 5335 5335 5335 5335 5336 5336 5336 5337 5338 5339 5340 5341 5341 5342 5343 5343 5343 5343 5343 5343 5344 5345 5349 5354 5355 5352 5351 5354 5358 5362 5363 5366 5375 5379 5380
5339 5339 5339 5339 5339 5339 5338 5337 5336 5334 5333 5332 5332 5330 5329 5328 5326 5325 5326 5325 5325 5325 5326 5326 5327 5328 5329 5330 5331 5332 5333 5334 5334 5335 5335 5334 5335 5336 5336 5338 5342 5346 5345 5343 5345 5347 5350 5353 5359 5364 5365 5366
5328 5328 5327 5327 5326 5326 5326 5325 5324 5322 5321 5321 5321 5320 5319 5319 5317 5316 5316 5316 5316 5316 5316 5317 5317 5317 5318 5320 5321 5322 5323 5324 5325 5326 5326 5327 5327 5327 5328 5328 5330 5335 5336 5336 5337 5337 5338 5341 5344 5347 5349 5351